Location: Alfortville
(48.8058°N, 2.4204°E)
Time: 22:55:26
(UTC+00:00)

SR - Pass Details

Date: 26 April 2026
Orbit: 568 x 852 km, 66.7° (Epoch: 19 May)

Event Time Altitude Azimuth Distance (km) Brightness Sun altitude
Rises 20:28:06 0° 322° (NW) 3,314 ? -13.5°
Reaches altitude 10° 20:30:31 10° 318° (NW) 2,412 ? -13.8°
Maximum altitude 20:36:00 58° 241° (WSW) 975 ? -14.4°
Enters shadow 20:40:29 16° 166° (SSE) 2,056 ? -15.0°
